Weather History for Tullahoma, TN

Change the Weather History Date:

Friday, March 7, 2014

  Actual Average Record
Temperature  
Mean Temperature 45 °F -  
Max Temperature 62 °F 58 °F 62 °F (2014)
Min Temperature 28 °F 35 °F 28 °F (2013)
Degree Days  
Heating Degree Days 20    
Moisture  
Dew Point 29 °F    
Average Humidity 61    
Maximum Humidity 93    
Minimum Humidity 27    
Precipitation  
Precipitation 0.00 in - - ()
Sea Level Pressure  
Sea Level Pressure 30.01 in    
Wind  
Wind Speed 3 mph (NW)    
Max Wind Speed 9 mph    
Max Gust Speed -    
Visibility 10 miles    
Events      
Averages and records for this station are not official NWS values.
T = Trace of Precipitation, MM = Missing Value Source: NWS Daily Summary

Daily Weather History Graph

Daily Weather History Graph

Search for Another Location

Airport:

Trip Planner

Search our weather history database for the weather conditions in past years. The results will help you decide how hot, cold, wet, or windy it might be!

Date:

Astronomy

Mar. 07, 2014 Rise Set
Actual Time 6:06 AM CST 5:45 PM CST
Civil Twilight 5:41 AM CST 6:11 PM CST
Nautical Twilight 5:11 AM CST 6:40 PM CST
Astronomical Twilight 4:42 AM CST 7:10 PM CST
Moon 10:12 AM CST (3/7) No Moon Set
Length of Visible Light 12h 29m
Length of Day
11h 39m
Waxing Crescent, 42% of the Moon is Illuminated
Mar 7
Waxing Crescent
Mar 8
First Quarter
Mar 16
Full
Mar 23
Last Quarter
Mar 30
New

Hourly Weather History & Observations

Time (CST) Temp. Windchill Dew Point Humidity Pressure Visibility Wind Dir Wind Speed Gust Speed Precip Events Conditions
12:35 AM 39.2 °F 35.9 °F 33.8 °F 81% 29.99 in 10.0 mi NNW 4.6 mph - N/A   Overcast
12:55 AM 39.2 °F 37.0 °F 33.8 °F 81% 29.99 in 10.0 mi NW 3.5 mph - N/A   Overcast
1:15 AM 37.4 °F 32.8 °F 32.0 °F 81% 29.99 in 10.0 mi NNW 5.8 mph - N/A   Overcast
1:35 AM 35.6 °F 31.7 °F 30.2 °F 81% 29.99 in 10.0 mi NNW 4.6 mph - N/A   Scattered Clouds
1:55 AM 35.6 °F 31.7 °F 28.4 °F 75% 29.97 in 10.0 mi NW 4.6 mph - N/A   Clear
2:15 AM 33.8 °F 30.8 °F 28.4 °F 81% 29.97 in 10.0 mi NW 3.5 mph - N/A   Clear
2:35 AM 32.0 °F 26.4 °F 28.4 °F 87% 29.96 in 10.0 mi NW 5.8 mph - N/A   Clear
2:55 AM 32.0 °F - 28.4 °F 87% 29.96 in 10.0 mi Calm Calm - N/A   Clear
3:15 AM 33.8 °F - 28.4 °F 81% 29.96 in 10.0 mi Calm Calm - N/A   Clear
3:35 AM 33.8 °F - 28.4 °F 81% 29.97 in 10.0 mi Calm Calm - N/A   Clear
3:55 AM 33.8 °F - 28.4 °F 81% 29.97 in 10.0 mi Calm Calm - N/A   Clear
4:15 AM 30.2 °F - 26.6 °F 86% 29.98 in 10.0 mi Calm Calm - N/A   Clear
4:35 AM 28.4 °F 22.2 °F 24.8 °F 86% 29.99 in 10.0 mi NW 5.8 mph - N/A   Clear
4:55 AM 28.4 °F 23.3 °F 26.6 °F 93% 30.00 in 10.0 mi NW 4.6 mph - N/A   Unknown
5:15 AM 30.2 °F - 28.4 °F 93% 30.01 in 10.0 mi Calm Calm - N/A   Mostly Cloudy
5:35 AM 33.8 °F - 28.4 °F 81% 30.02 in 10.0 mi Calm Calm - N/A   Overcast
5:55 AM 33.8 °F - 28.4 °F 81% 30.02 in 10.0 mi Calm Calm - N/A   Overcast
6:15 AM 33.8 °F - 28.4 °F 81% 30.02 in 10.0 mi Calm Calm - N/A   Mostly Cloudy
6:35 AM 33.8 °F - 28.4 °F 81% 30.03 in 10.0 mi Calm Calm - N/A   Mostly Cloudy
6:55 AM 33.8 °F - 30.2 °F 87% 30.03 in 10.0 mi Calm Calm - N/A   Overcast
7:15 AM 35.6 °F - 30.2 °F 81% 30.03 in 10.0 mi Calm Calm - N/A   Mostly Cloudy
7:35 AM 37.4 °F 34.9 °F 30.2 °F 75% 30.04 in 10.0 mi WNW 3.5 mph - N/A   Clear
7:55 AM 39.2 °F 37.0 °F 30.2 °F 70% 30.05 in 10.0 mi WNW 3.5 mph - N/A   Clear
8:15 AM 41.0 °F - 30.2 °F 65% 30.05 in 10.0 mi Calm Calm - N/A   Clear
8:35 AM 42.8 °F - 30.2 °F 61% 30.05 in 10.0 mi Calm Calm - N/A   Clear
8:55 AM 44.6 °F 43.1 °F 32.0 °F 61% 30.05 in 10.0 mi East 3.5 mph - N/A   Clear
9:15 AM 46.4 °F - 30.2 °F 53% 30.05 in 9.0 mi Calm Calm - N/A   Clear
9:35 AM 48.2 °F - 30.2 °F 50% 30.05 in 10.0 mi North 3.5 mph - N/A   Clear
9:55 AM 51.8 °F - 30.2 °F 44% 30.04 in 10.0 mi East 3.5 mph - N/A   Clear
10:15 AM 51.8 °F - 30.2 °F 44% 30.04 in 10.0 mi Calm Calm - N/A   Clear
10:35 AM 53.6 °F - 30.2 °F 41% 30.03 in 10.0 mi NNE 3.5 mph - N/A   Clear
10:55 AM 55.4 °F - 28.4 °F 36% 30.02 in 10.0 mi SSE 3.5 mph - N/A   Clear
11:15 AM 55.4 °F - 26.6 °F 33% 30.02 in 10.0 mi Calm Calm - N/A   Clear
11:35 AM 55.4 °F - 26.6 °F 33% 30.01 in 10.0 mi Variable 3.5 mph - N/A   Clear
11:55 AM 57.2 °F - 26.6 °F 31% 30.00 in 10.0 mi Variable 5.8 mph - N/A   Clear
12:15 PM 59.0 °F - 26.6 °F 29% 29.99 in 10.0 mi North 5.8 mph - N/A   Clear
12:35 PM 59.0 °F - 26.6 °F 29% 29.99 in 10.0 mi Calm Calm - N/A   Clear
12:55 PM 60.8 °F - 26.6 °F 27% 29.98 in 10.0 mi Calm Calm - N/A   Clear
1:15 PM 60.8 °F - 28.4 °F 29% 29.97 in 10.0 mi Calm Calm - N/A   Clear
1:35 PM 62.6 °F - 28.4 °F 27% 29.97 in 10.0 mi NNW 5.8 mph - N/A   Clear
1:55 PM 60.8 °F - 28.4 °F 29% 29.97 in 10.0 mi West 8.1 mph - N/A   Clear
2:15 PM 62.6 °F - 28.4 °F 27% 29.97 in 10.0 mi Variable 5.8 mph - N/A   Clear
2:35 PM 62.6 °F - 28.4 °F 27% 29.97 in 10.0 mi West 9.2 mph - N/A   Clear
2:55 PM 60.8 °F - 28.4 °F 29% 29.98 in 10.0 mi NW 9.2 mph - N/A   Clear
5:15 PM 57.2 °F - 28.4 °F 33% 29.99 in 10.0 mi NNW 5.8 mph - N/A   Clear
5:35 PM 55.4 °F - 28.4 °F 36% 29.99 in 10.0 mi NW 4.6 mph - N/A   Clear
5:55 PM 53.6 °F - 28.4 °F 38% 29.99 in 10.0 mi Calm Calm - N/A   Clear
6:15 PM 51.8 °F - 30.2 °F 44% 29.99 in 10.0 mi Calm Calm - N/A   Clear
6:35 PM 46.4 °F - 28.4 °F 50% 30.00 in 10.0 mi Calm Calm - N/A   Clear
6:55 PM 46.4 °F - 28.4 °F 50% 30.01 in 10.0 mi Calm Calm - N/A   Clear
7:15 PM 46.4 °F - 30.2 °F 53% 30.01 in 10.0 mi Calm Calm - N/A   Clear
7:35 PM 44.6 °F - 28.4 °F 53% 30.00 in 10.0 mi Calm Calm - N/A   Clear
7:55 PM 44.6 °F - 30.2 °F 57% 30.00 in 10.0 mi Calm Calm - N/A   Clear
8:15 PM 39.2 °F - 30.2 °F 70% 30.02 in 10.0 mi Calm Calm - N/A   Clear
8:35 PM 39.2 °F - 30.2 °F 70% 30.03 in 10.0 mi Calm Calm - N/A   Clear
8:55 PM 37.4 °F - 30.2 °F 75% 30.03 in 10.0 mi Calm Calm - N/A   Clear
9:15 PM 39.2 °F - 30.2 °F 70% 30.02 in 10.0 mi Calm Calm - N/A   Clear
9:35 PM 39.2 °F - 30.2 °F 70% 30.02 in 10.0 mi Calm Calm - N/A   Clear
9:55 PM 39.2 °F - 30.2 °F 70% 30.02 in 10.0 mi Calm Calm - N/A   Clear
10:15 PM 37.4 °F - 30.2 °F 75% 30.02 in 10.0 mi Calm Calm - N/A   Clear
10:35 PM 35.6 °F 31.7 °F 30.2 °F 81% 30.03 in 10.0 mi SSW 4.6 mph - N/A   Clear
10:55 PM 35.6 °F - 30.2 °F 81% 30.03 in 10.0 mi Calm Calm - N/A   Clear
11:15 PM 35.6 °F - 30.2 °F 81% 30.04 in 10.0 mi Calm Calm - N/A   Clear
11:35 PM 39.2 °F - 30.2 °F 70% 30.03 in 10.0 mi Calm Calm - N/A   Clear
11:55 PM 39.2 °F - 30.2 °F 70% 30.02 in 10.0 mi Calm Calm - N/A   Clear